Location: Oshawa
(43.9000°N, 78.8670°W)
Time: 02:44:24
(UTC-04:00)

Iridium 98 - Visible Passes

Search period start: 25 July 2014 00:00
Search period end: 04 August 2014 00:00
Orbit: 747 x 751 km, 86.4° (Epoch: 24 July)

Date Brightness Start Highest point End Pass type
(mag) Time Alt. Az. Time Alt. Az. Time Alt. Az.
25 Jul 7.7 01:16:17 10° NW 01:18:38 13° WNW 01:20:05 12° W visible
25 Jul 6.3 22:52:26 10° NNE 22:57:01 34° E 22:58:19 29° ESE visible
26 Jul 6.9 00:32:43 10° NNW 00:37:00 28° W 00:38:11 26° WSW visible
26 Jul 7.2 22:11:30 10° NE 22:14:36 16° ENE 22:16:26 14° E visible
26 Jul 5.7 23:50:10 10° N 23:55:10 62° W 23:56:18 49° SW visible
27 Jul 5.5 23:08:07 10° N 23:13:08 60° E 23:14:25 45° SE visible
28 Jul 7.6 00:49:38 10° NW 00:52:41 16° WNW 00:54:17 14° W visible
28 Jul 6.6 22:26:33 10° NNE 22:30:53 28° ENE 22:32:33 23° ESE visible
29 Jul 6.6 00:06:28 10° NNW 00:11:01 34° W 00:12:25 29° WSW visible
29 Jul 7.4 21:46:01 10° NE 21:48:23 13° ENE 21:50:41 10° E visible
29 Jul 5.5 23:24:03 10° N 23:29:07 76° W 23:30:33 48° SSW visible
30 Jul 5.8 22:42:07 10° N 22:47:02 49° E 22:48:41 35° SE visible
31 Jul 7.4 00:23:09 10° NW 00:26:44 20° W 00:28:33 16° WSW visible
31 Jul 6.8 22:00:42 10° NNE 22:04:43 23° ENE 22:06:50 18° ESE visible
31 Jul 6.4 23:40:15 10° NNW 23:45:00 42° W 23:46:42 31° SW visible
01 Aug 7.5 21:21:03 10° NE 21:22:10 11° ENE 21:23:17 10° E visible
01 Aug 5.4 22:57:58 10° N 23:03:04 88° E 23:04:52 41° S visible
02 Aug 8.0 00:41:05 10° WNW 00:42:20 11° WNW 00:43:35 10° W visible
02 Aug 6.0 22:16:08 10° NNE 22:20:55 40° E 22:23:02 27° SE visible
02 Aug 7.3 23:56:46 10° NNW 00:00:45 24° W 00:02:54 18° WSW visible
03 Aug 7.0 21:34:56 10° NNE 21:38:32 19° ENE 21:41:13 13° ESE visible
03 Aug 6.1 23:14:04 10° NNW 23:18:58 51° W 23:21:05 31° SW visible
